Weather reports worldwide

Advertisment
Belgrad, Serbia (13274): temperature & dewpoint: 20.10.2020 22:00:00 - 26.10.2020 22:00:00 (CET)Belgrad, Serbia (13274): wind speed: 20.10.2020 22:00:00 - 26.10.2020 22:00:00 (CET)Belgrad, Serbia (13274): wind direction: 20.10.2020 22:00:00 - 26.10.2020 22:00:00 (CET)Belgrad, Serbia (13274): reduced air pressure: 20.10.2020 22:00:00 - 26.10.2020 22:00:00 (CET)Belgrad, Serbia (13274): visibility: 20.10.2020 22:00:00 - 26.10.2020 22:00:00 (CET)
Date & Time tt [°C] td [°C] ff [km/h] ff [kn] dd ppp [hPa] vv [km]
26.10.2020 22:00:00 15,4 10,2 7 4 SE 1012,0 20
26.10.2020 21:00:00 15,4 10,2 7 4 SE 1012,0 20
26.10.2020 20:00:00 16,0 10,3 7 4 SE 1011,8 20
26.10.2020 19:00:00 16,6 10,6 7 4 SE 1011,8 20
26.10.2020 18:00:00 16,8 10,5 7 4 SE 1012,0 15
26.10.2020 17:00:00 17,9 10,2 4 2 ESE 1011,4 15
26.10.2020 16:00:00 19,8 10,0 4 2 S 1011,6 20
26.10.2020 15:00:00 21,2 10,8 7 4 SSE 1011,8 20
26.10.2020 14:00:00 21,8 10,5 4 2 SSE 1011,7 20
26.10.2020 13:00:00 21,6 10,5 7 4 S 1012,8 20
26.10.2020 12:00:00 20,3 11,1 4 2 S 1013,0 15
26.10.2020 11:00:00 19,6 10,3 7 4 S 1013,8 10
26.10.2020 10:00:00 18,0 11,4 4 2 WSW 1014,1 10
26.10.2020 09:00:00 16,2 12,1 4 2 S 1014,3 8
26.10.2020 08:00:00 13,6 11,8 4 2 SE 1014,4 8
26.10.2020 07:00:00 12,0 11,1 0 0 N 1014,5 8
26.10.2020 06:00:00 12,4 11,7 4 2 S 1014,0 6
26.10.2020 05:00:00 12,5 11,8 4 2 S 1014,1 4,0
26.10.2020 04:00:00 12,7 12,0 4 2 ESE 1014,0 4,0
26.10.2020 03:00:00 12,5 11,8 7 4 SE 1014,1 4,0
26.10.2020 02:00:00 11,9 11,2 4 2 SSE 1014,2 4,0
26.10.2020 01:00:00 11,7 10,8 4 2 SE 1014,5 4,0
26.10.2020 00:00:00 12,0 10,8 4 2 SSE 1014,1 5
25.10.2020 23:00:00 12,8 11,5 4 2 WSW 1014,1 5
25.10.2020 22:00:00 13,5 12,3 4 2 SSW 1014,6 3,0
25.10.2020 21:00:00 13,5 12,1 4 2 S 1014,7 3,0
25.10.2020 20:00:00 13,3 12,0 4 2 WSW 1014,6 4,0
25.10.2020 19:00:00 14,6 13,0 4 2 W 1014,3 6
25.10.2020 18:00:00 14,4 11,8 4 2 S 1014,2 8
25.10.2020 17:00:00 14,6 11,1 4 2 W 1013,7 8
25.10.2020 16:00:00 16,0 12,0 4 2 W 1013,4 8
25.10.2020 15:00:00 16,5 12,8 4 2 WSW 1013,2 6
25.10.2020 14:00:00 16,1 12,5 4 2 W 1013,2 6
25.10.2020 13:00:00 16,4 12,5 7 4 W 1013,4 6
25.10.2020 12:00:00 15,8 13,4 7 4 W 1013,8 5
25.10.2020 11:00:00 15,0 13,5 4 2 WSW 1013,8 5
25.10.2020 10:00:00 14,6 13,2 4 2 WSW 1013,9 4,0
25.10.2020 09:00:00 14,3 13,4 0 0 N 1014,0 4,0
25.10.2020 08:00:00 13,5 12,5 7 4 E 1013,9 4,0
25.10.2020 07:00:00 13,2 12,4 7 4 SE 1013,8 8
25.10.2020 06:00:00 13,5 12,3 4 2 SSE 1013,6 8
25.10.2020 05:00:00 13,5 12,1 4 2 SE 1013,7 8
25.10.2020 04:00:00 13,5 12,0 4 2 SE 1013,8 8
25.10.2020 03:00:00 13,7 12,4 4 2 ESE 1014,0 8
25.10.2020 02:00:00 13,9 12,4 7 4 NE 1014,6 8
25.10.2020 01:00:00 - - - - - - -
25.10.2020 00:00:00 13,7 12,3 7 4 NE - 8
24.10.2020 23:00:00 13,7 12,4 7 4 NE 1015,2 8
24.10.2020 22:00:00 13,6 12,3 0 0 N 1016,4 8
24.10.2020 21:00:00 13,4 12,3 4 2 SE 1016,6 8
24.10.2020 20:00:00 13,9 12,5 4 2 WSW 1016,9 8
24.10.2020 19:00:00 14,8 13,5 4 2 W 1017,1 8
24.10.2020 18:00:00 15,0 13,5 4 2 WNW 1017,3 6
24.10.2020 17:00:00 15,3 13,8 4 2 W 1017,3 6
24.10.2020 16:00:00 16,4 14,8 4 2 W 1016,6 5
24.10.2020 15:00:00 18,0 12,4 4 2 W 1016,5 10
24.10.2020 14:00:00 18,3 12,5 4 2 WNW 1016,6 10
24.10.2020 13:00:00 18,3 10,9 0 0 N 1016,7 10
24.10.2020 12:00:00 18,3 12,3 0 0 N 1017,2 10
24.10.2020 11:00:00 16,8 12,1 0 0 N 1017,5 10
24.10.2020 10:00:00 15,6 11,1 4 2 W 1017,7 10
24.10.2020 09:00:00 15,4 11,1 4 2 SSW 1017,4 10
24.10.2020 08:00:00 13,2 10,9 7 4 SSE 1017,9 15
24.10.2020 07:00:00 12,1 10,0 0 0 N 1017,6 15
24.10.2020 06:00:00 12,3 9,8 4 2 ESE 1017,2 15
24.10.2020 05:00:00 11,7 10,2 7 4 SSE 1017,1 15
24.10.2020 04:00:00 11,0 9,2 4 2 SSE 1017,2 15
24.10.2020 03:00:00 11,6 9,7 0 0 N 1017,2 15
24.10.2020 02:00:00 12,9 9,5 4 2 N 1017,2 15
24.10.2020 01:00:00 12,9 10,9 0 0 N 1017,2 15
24.10.2020 00:00:00 13,0 10,3 4 2 SE 1017,4 15
23.10.2020 23:00:00 13,4 10,0 4 2 SSE 1017,9 15
23.10.2020 22:00:00 13,4 10,6 4 2 SE 1017,9 12
23.10.2020 21:00:00 13,7 11,4 4 2 SE 1017,9 12
23.10.2020 20:00:00 14,2 11,1 4 2 SSE 1018,1 12
23.10.2020 19:00:00 14,7 11,1 4 2 SE 1017,9 12
23.10.2020 18:00:00 15,5 11,7 4 2 SE 1017,9 10
23.10.2020 17:00:00 17,3 10,8 4 2 N 1017,6 10
23.10.2020 16:00:00 19,2 10,5 4 2 NNE 1017,1 8
23.10.2020 15:00:00 21,3 10,6 0 0 N 1017,5 8
23.10.2020 14:00:00 20,3 10,5 7 4 NNE 1017,9 8
23.10.2020 13:00:00 19,6 10,0 7 4 NNE 1018,2 8
23.10.2020 12:00:00 18,9 9,4 4 2 ESE 1018,6 8
23.10.2020 11:00:00 16,9 8,6 4 2 NW 1019,9 8
23.10.2020 10:00:00 16,7 8,6 4 2 N 1020,2 8
23.10.2020 09:00:00 13,7 7,4 4 2 SE 1020,8 8
23.10.2020 08:00:00 10,6 7,7 4 2 S 1021,3 8
23.10.2020 07:00:00 8,2 6,8 0 0 N 1021,3 8
23.10.2020 06:00:00 8,0 7,0 0 0 N 1021,1 10
23.10.2020 05:00:00 7,3 6,0 4 2 SE 1011,1 10
23.10.2020 04:00:00 7,0 6,3 0 0 N 1011,3 10
23.10.2020 03:00:00 8,0 6,6 0 0 N 1011,1 10
23.10.2020 02:00:00 9,4 7,9 0 0 N 1011,4 10
23.10.2020 01:00:00 10,5 7,7 4 2 SE 1011,4 20
23.10.2020 00:00:00 10,5 7,7 4 2 SE 1011,6 10
22.10.2020 23:00:00 11,2 8,8 4 2 ESE 1011,6 10
22.10.2020 22:00:00 11,4 9,0 4 2 SE 1022,0 10
22.10.2020 21:00:00 12,0 9,2 4 2 SE 1021,9 15
22.10.2020 20:00:00 12,6 9,7 4 2 SSE 1021,7 15
22.10.2020 19:00:00 13,6 9,5 4 2 SE 1021,8 15
22.10.2020 18:00:00 14,9 9,2 4 2 NNE 1021,8 15
22.10.2020 17:00:00 17,0 9,7 4 2 SE 1021,1 20
22.10.2020 16:00:00 19,9 6,0 0 0 N 1021,0 20
22.10.2020 15:00:00 22,0 7,9 4 2 WSW 1021,1 20
22.10.2020 14:00:00 21,7 6,8 4 2 WSW 1021,3 20
22.10.2020 13:00:00 20,6 8,3 4 2 W 1021,6 15
22.10.2020 12:00:00 18,8 8,5 4 2 W 1022,4 12
22.10.2020 11:00:00 17,4 8,5 4 2 W 1023,0 12
22.10.2020 10:00:00 16,2 8,6 4 2 WNW 1022,9 12
22.10.2020 09:00:00 13,6 7,4 4 2 N 1023,0 12
22.10.2020 08:00:00 11,6 9,0 4 2 SSW 1022,6 20
22.10.2020 07:00:00 9,2 6,2 4 2 SSE 1022,2 20
22.10.2020 06:00:00 8,2 7,4 7 4 SE 1021,9 15
22.10.2020 05:00:00 8,9 7,6 7 4 SE 1021,9 20
22.10.2020 04:00:00 8,9 7,6 4 2 SSE 1022,0 20
22.10.2020 03:00:00 9,8 7,6 7 4 SE 1021,9 20
22.10.2020 02:00:00 10,4 7,6 4 2 SE 1022,0 20
22.10.2020 01:00:00 11,0 7,0 4 2 SSE 1022,1 20
22.10.2020 00:00:00 12,7 7,0 7 4 SE 1020,7 20
21.10.2020 23:00:00 13,2 7,4 7 4 SE 1021,9 20
21.10.2020 22:00:00 13,8 7,9 11 6 SE 1021,8 20
21.10.2020 21:00:00 13,8 7,9 11 6 SE 1021,5 20
21.10.2020 20:00:00 14,6 6,8 7 4 ESE 1021,6 20
21.10.2020 19:00:00 15,0 6,6 7 4 ESE 1021,6 20
21.10.2020 18:00:00 15,4 6,8 7 4 SE 1021,9 20
21.10.2020 17:00:00 16,6 6,4 4 2 ESE 1022,0 30
21.10.2020 16:00:00 18,8 6,2 4 2 SE 1021,6 30
21.10.2020 15:00:00 19,9 6,0 7 4 S 1021,6 30
21.10.2020 14:00:00 21,0 6,2 7 4 S 1022,1 30
21.10.2020 13:00:00 20,0 7,7 7 4 SSE 1022,8 30
21.10.2020 12:00:00 18,8 6,8 11 6 S 1023,4 30
21.10.2020 11:00:00 17,8 7,4 7 4 SSE 1024,0 20
21.10.2020 10:00:00 15,6 7,0 7 4 SSE 1024,4 20
21.10.2020 09:00:00 14,4 7,0 11 6 SE 1024,5 20
21.10.2020 08:00:00 11,8 6,0 11 6 SE 1024,4 20
21.10.2020 07:00:00 10,1 4,9 18 10 SSE 1024,3 20
21.10.2020 06:00:00 8,9 5,1 11 6 SE 1024,2 20
21.10.2020 05:00:00 9,5 5,1 11 6 SE 1024,5 20
21.10.2020 04:00:00 10,0 4,7 18 10 SE 1024,9 20
21.10.2020 03:00:00 8,8 4,9 11 6 SE 1025,0 20
21.10.2020 02:00:00 8,7 4,7 14 8 SE 1025,0 20
21.10.2020 01:00:00 8,7 4,5 11 6 SE 1026,1 20
21.10.2020 00:00:00 9,2 5,1 14 8 SSE 1026,7 20
20.10.2020 23:00:00 9,8 5,1 11 6 SE 1027,2 20
20.10.2020 22:00:00 10,3 5,1 7 4 SE 1027,4 20

tt = temperature
td = dewpoint
ff = wind speed
dd = wind direction
ppp = reduced air pressure
vv = visibility

Next stations